| time (UTC) | temp F | wind direction | speed MPH | gust MPH | rain 1hr in | rain 24hr in | rain mn in | humidity % | barometer mb |
| 20260506005441 | 50 | 85 | 1.0 | 9.0 | 0.00 | 0.04 | 0.01 | 72 | 1006.0 |
| 20260506005203 | 50 | 47 | 2.0 | 11.0 | 0.00 | 0.04 | 0.01 | 73 | 1005.8 |
| 20260506004436 | 50 | 36 | 2.0 | 14.0 | 0.00 | 0.04 | 0.01 | 73 | 1005.7 |
| 20260506004205 | 50 | 5 | 1.0 | 14.0 | 0.00 | 0.04 | 0.01 | 74 | 1005.8 |
| 20260506003429 | 50 | 46 | 1.0 | 6.0 | 0.00 | 0.04 | 0.01 | 75 | 1005.7 |
| 20260506003146 | 50 | 39 | 1.0 | 6.0 | 0.00 | 0.04 | 0.01 | 75 | 1005.6 |
| 20260506002416 | 50 | 85 | 1.0 | 8.0 | 0.00 | 0.04 | 0.01 | 75 | 1005.6 |
| 20260506001915 | 50 | 5 | 1.0 | 8.0 | 0.00 | 0.04 | 0.01 | 75 | 1005.6 |
| 20260506001415 | 50 | 36 | 1.0 | 8.0 | 0.00 | 0.04 | 0.01 | 75 | 1005.9 |
| 20260506000913 | 50 | 32 | 0.0 | 8.0 | 0.00 | 0.04 | 0.01 | 75 | 1006.0 |
| 20260506000416 | 50 | 42 | 0.0 | 6.0 | 0.00 | 0.04 | 0.01 | 76 | 1005.8 |
| 20260506000135 | 50 | 37 | 1.0 | 6.0 | 0.00 | 0.04 | 0.01 | 76 | 1005.7 |
| 20260505235411 | 50 | 34 | 1.0 | 6.0 | 0.00 | 0.04 | 0.01 | 75 | 1005.9 |
| 20260505234913 | 50 | 17 | 0.0 | 7.0 | 0.00 | 0.04 | 0.01 | 75 | 1005.9 |
| 20260505234413 | 50 | 58 | 1.0 | 7.0 | 0.00 | 0.04 | 0.01 | 75 | 1005.8 |
| 20260505233908 | 50 | 81 | 1.0 | 6.0 | 0.00 | 0.04 | 0.01 | 75 | 1005.8 |
| 20260505233628 | 50 | 32 | 1.0 | 9.0 | 0.00 | 0.04 | 0.01 | 75 | 1005.8 |
| 20260505233143 | 50 | 38 | 1.0 | 9.0 | 0.00 | 0.04 | 0.01 | 75 | 1005.7 |
| 20260505232405 | 50 | 355 | 1.0 | 6.0 | 0.00 | 0.04 | 0.01 | 77 | 1005.6 |
| 20260505231905 | 50 | 317 | 1.0 | 10.0 | 0.00 | 0.04 | 0.01 | 77 | 1005.6 |
| 20260505231403 | 50 | 42 | 2.0 | 10.0 | 0.00 | 0.04 | 0.01 | 77 | 1005.5 |
| 20260505230902 | 50 | 5 | 1.0 | 11.0 | 0.00 | 0.04 | 0.01 | 77 | 1005.4 |
| 20260505230829 | 50 | 30 | 1.0 | 11.0 | 0.00 | 0.04 | 0.01 | 77 | 1005.4 |
| 20260505230825 | 50 | 41 | 1.0 | 9.0 | 0.00 | 0.04 | 0.01 | 77 | 1005.4 |
| 20260505225350 | 50 | 22 | 2.0 | 12.0 | 0.00 | 0.04 | 0.01 | 76 | 1005.3 |
| 20260505224851 | 50 | 44 | 2.0 | 14.0 | 0.00 | 0.04 | 0.01 | 75 | 1005.2 |
| 20260505224617 | 50 | 21 | 2.0 | 14.0 | 0.00 | 0.04 | 0.01 | 75 | 1005.2 |
| 20260505223849 | 50 | 24 | 2.0 | 11.0 | 0.00 | 0.04 | 0.01 | 74 | 1004.9 |
| 20260505223347 | 50 | 42 | 1.0 | 9.0 | 0.00 | 0.04 | 0.01 | 74 | 1005.0 |
| 20260505223108 | 51 | 38 | 1.0 | 9.0 | 0.00 | 0.04 | 0.01 | 74 | 1005.1 |
| 20260505222347 | 51 | 30 | 1.0 | 12.0 | 0.00 | 0.04 | 0.01 | 73 | 1005.1 |
| 20260505222105 | 51 | 32 | 2.0 | 17.0 | 0.00 | 0.04 | 0.01 | 73 | 1005.0 |
| 20260505221346 | 51 | 34 | 2.0 | 17.0 | 0.00 | 0.04 | 0.01 | 71 | 1004.7 |
| 20260505220841 | 51 | 48 | 2.0 | 13.0 | 0.00 | 0.04 | 0.01 | 70 | 1004.8 |
| 20260505220340 | 51 | 28 | 2.0 | 16.0 | 0.00 | 0.04 | 0.01 | 70 | 1004.8 |
| 20260505215839 | 51 | 33 | 2.0 | 16.0 | 0.00 | 0.04 | 0.01 | 70 | 1004.9 |
| 20260505215340 | 51 | 52 | 2.0 | 14.0 | 0.00 | 0.04 | 0.01 | 71 | 1005.0 |
| 20260505214839 | 51 | 42 | 2.0 | 16.0 | 0.00 | 0.04 | 0.01 | 71 | 1004.7 |
| 20260505214337 | 51 | 47 | 3.0 | 17.0 | 0.00 | 0.04 | 0.01 | 71 | 1004.6 |
| 20260505213838 | 51 | 64 | 2.0 | 17.0 | 0.00 | 0.04 | 0.01 | 71 | 1004.6 |
| 20260505213602 | 51 | 350 | 1.0 | 13.0 | 0.00 | 0.04 | 0.01 | 72 | 1004.5 |
| 20260505212832 | 51 | 50 | 2.0 | 13.0 | 0.00 | 0.04 | 0.01 | 72 | 1004.5 |
| 20260505212334 | 51 | 34 | 2.0 | 14.0 | 0.00 | 0.04 | 0.01 | 72 | 1004.6 |
| 20260505211831 | 51 | 74 | 2.0 | 14.0 | 0.00 | 0.04 | 0.01 | 72 | 1004.7 |
| 20260505211601 | 52 | 27 | 2.0 | 13.0 | 0.00 | 0.04 | 0.01 | 72 | 1004.8 |
| 20260505210835 | 52 | 24 | 1.0 | 16.0 | 0.00 | 0.04 | 0.01 | 73 | 1004.7 |
| 20260505210332 | 52 | 67 | 1.0 | 16.0 | 0.00 | 0.04 | 0.01 | 73 | 1004.5 |
| 20260505205834 | 52 | 44 | 2.0 | 14.0 | 0.00 | 0.04 | 0.01 | 72 | 1004.6 |
| 20260505205335 | 52 | 14 | 3.0 | 17.0 | 0.00 | 0.04 | 0.01 | 72 | 1004.5 |
| 20260505204834 | 52 | 45 | 3.0 | 17.0 | 0.00 | 0.04 | 0.01 | 71 | 1004.6 |
| 20260505204553 | 52 | 43 | 3.0 | 14.0 | 0.00 | 0.04 | 0.01 | 70 | 1004.7 |
| 20260505203832 | 52 | 34 | 2.0 | 14.0 | 0.00 | 0.04 | 0.01 | 70 | 1004.7 |
| 20260505203332 | 52 | 41 | 2.0 | 15.0 | 0.00 | 0.04 | 0.01 | 70 | 1004.8 |
| 20260505202832 | 52 | 28 | 1.0 | 15.0 | 0.00 | 0.04 | 0.01 | 70 | 1004.7 |
| 20260505202334 | 52 | 27 | 1.0 | 12.0 | 0.00 | 0.04 | 0.01 | 70 | 1004.5 |
| 20260505202052 | 52 | 321 | 1.0 | 10.0 | 0.00 | 0.04 | 0.01 | 70 | 1004.4 |
| 20260505201334 | 52 | 22 | 2.0 | 13.0 | 0.00 | 0.04 | 0.01 | 70 | 1004.5 |
| 20260505200832 | 52 | 32 | 2.0 | 13.0 | 0.00 | 0.04 | 0.01 | 69 | 1004.5 |
| 20260505200600 | 52 | 355 | 2.0 | 18.0 | 0.00 | 0.04 | 0.01 | 69 | 1004.5 |
| 20260505200051 | 52 | 63 | 2.0 | 18.0 | 0.00 | 0.04 | 0.01 | 69 | 1004.6 |
| 20260505195602 | 53 | 40 | 2.0 | 11.0 | 0.00 | 0.04 | 0.01 | 70 | 1004.4 |
| 20260505194832 | 53 | 30 | 1.0 | 11.0 | 0.00 | 0.04 | 0.01 | 70 | 1004.6 |
| 20260505194332 | 53 | 38 | 1.0 | 11.0 | 0.00 | 0.04 | 0.01 | 70 | 1004.7 |
| 20260505193832 | 53 | 35 | 2.0 | 12.0 | 0.00 | 0.04 | 0.01 | 69 | 1004.5 |
| 20260505193332 | 53 | 56 | 2.0 | 12.0 | 0.00 | 0.04 | 0.01 | 69 | 1004.4 |
| 20260505192833 | 53 | 36 | 3.0 | 15.0 | 0.00 | 0.04 | 0.01 | 69 | 1004.1 |
| 20260505192332 | 53 | 42 | 3.0 | 19.0 | 0.00 | 0.04 | 0.01 | 69 | 1004.1 |
| 20260505191833 | 53 | 21 | 2.0 | 19.0 | 0.00 | 0.04 | 0.01 | 70 | 1004.3 |
| 20260505191331 | 53 | 60 | 1.0 | 11.0 | 0.00 | 0.04 | 0.01 | 70 | 1004.1 |
| 20260505190832 | 53 | 64 | 1.0 | 10.0 | 0.00 | 0.04 | 0.01 | 70 | 1004.0 |
| 20260505190603 | 53 | 44 | 1.0 | 6.0 | 0.00 | 0.04 | 0.01 | 69 | 1004.0 |
| 20260505185832 | 53 | 27 | 1.0 | 11.0 | 0.00 | 0.04 | 0.01 | 70 | 1004.0 |
| 20260505185335 | 53 | 311 | 2.0 | 12.0 | 0.00 | 0.04 | 0.01 | 68 | 1004.0 |
| 20260505185058 | 53 | 34 | 2.0 | 13.0 | 0.00 | 0.04 | 0.01 | 70 | 1004.1 |
| 20260505184339 | 53 | 55 | 2.0 | 13.0 | 0.00 | 0.04 | 0.01 | 69 | 1004.0 |
| 20260505184050 | 53 | 342 | 2.0 | 15.0 | 0.00 | 0.04 | 0.01 | 70 | 1003.9 |
| 20260505183332 | 53 | 32 | 2.0 | 15.0 | 0.00 | 0.04 | 0.01 | 70 | 1003.7 |
| 20260505182832 | 53 | 26 | 2.0 | 10.0 | 0.00 | 0.04 | 0.01 | 71 | 1003.8 |
| 20260505182556 | 53 | 53 | 2.0 | 12.0 | 0.00 | 0.04 | 0.01 | 72 | 1003.8 |
| 20260505181828 | 53 | 48 | 3.0 | 20.0 | 0.00 | 0.04 | 0.01 | 70 | 1003.7 |
| 20260505181547 | 53 | 84 | 3.0 | 20.0 | 0.00 | 0.04 | 0.01 | 70 | 1003.5 |
| 20260505180829 | 53 | 51 | 3.0 | 19.0 | 0.00 | 0.04 | 0.01 | 69 | 1003.8 |
| 20260505180330 | 53 | 43 | 2.0 | 19.0 | 0.00 | 0.04 | 0.01 | 69 | 1003.7 |
| 20260505175828 | 54 | 31 | 2.0 | 13.0 | 0.00 | 0.04 | 0.01 | 70 | 1003.6 |
| 20260505175328 | 54 | 5 | 1.0 | 15.0 | 0.00 | 0.04 | 0.01 | 71 | 1003.7 |
| 20260505174831 | 54 | 43 | 2.0 | 15.0 | 0.00 | 0.04 | 0.01 | 71 | 1003.5 |
| 20260505174328 | 54 | 48 | 2.0 | 14.0 | 0.00 | 0.04 | 0.01 | 70 | 1003.5 |
| 20260505173828 | 54 | 11 | 2.0 | 14.0 | 0.00 | 0.04 | 0.01 | 71 | 1003.6 |
| 20260505173328 | 54 | 33 | 2.0 | 11.0 | 0.00 | 0.04 | 0.01 | 71 | 1003.4 |
| 20260505172827 | 54 | 5 | 2.0 | 11.0 | 0.00 | 0.04 | 0.01 | 71 | 1003.3 |
| 20260505172328 | 54 | 87 | 1.0 | 11.0 | 0.00 | 0.04 | 0.01 | 73 | 1003.2 |
| 20260505171827 | 54 | 0 | 1.0 | 10.0 | 0.00 | 0.04 | 0.01 | 73 | 1003.1 |
| 20260505171325 | 54 | 36 | 1.0 | 10.0 | 0.00 | 0.04 | 0.01 | 73 | 1003.1 |
| 20260505170826 | 54 | 62 | 1.0 | 9.0 | 0.00 | 0.04 | 0.01 | 72 | 1003.1 |
| 20260505170555 | 54 | 42 | 2.0 | 18.0 | 0.00 | 0.04 | 0.01 | 73 | 1002.9 |
| 20260505165826 | 54 | 355 | 2.0 | 18.0 | 0.00 | 0.04 | 0.01 | 74 | 1002.8 |
| 20260505165323 | 54 | 58 | 1.0 | 16.0 | 0.00 | 0.04 | 0.01 | 78 | 1002.8 |
| 20260505165311 | 53 | 22 | 2.0 | 12.0 | 0.00 | 0.04 | 0.01 | 79 | 1002.7 |
| 20260505165056 | 53 | 22 | 2.0 | 12.0 | 0.00 | 0.04 | 0.01 | 79 | 1002.7 |
| 20260505164324 | 53 | 78 | 2.0 | 13.0 | 0.00 | 0.04 | 0.01 | 79 | 1002.7 |
| 20260505163824 | 53 | 64 | 2.0 | 13.0 | 0.00 | 0.04 | 0.01 | 80 | 1002.5 |
| 20260505163324 | 53 | 91 | 2.0 | 11.0 | 0.00 | 0.04 | 0.01 | 81 | 1002.6 |
| 20260505162825 | 53 | 32 | 2.0 | 11.0 | 0.00 | 0.04 | 0.01 | 82 | 1002.5 |
| 20260505162322 | 53 | 51 | 2.0 | 12.0 | 0.00 | 0.04 | 0.01 | 82 | 1002.4 |
| 20260505162040 | 53 | 32 | 2.0 | 18.0 | 0.00 | 0.04 | 0.01 | 82 | 1002.3 |
| 20260505162024 | 53 | 355 | 2.0 | 13.0 | 0.00 | 0.04 | 0.01 | 82 | 1002.4 |
| 20260505160822 | 53 | 59 | 2.0 | 18.0 | 0.00 | 0.04 | 0.01 | 82 | 1002.1 |
| 20260505160321 | 53 | 76 | 2.0 | 12.0 | 0.00 | 0.04 | 0.01 | 83 | 1002.1 |
| 20260505153321 | 53 | 324 | 1.0 | 12.0 | 0.00 | 0.04 | 0.01 | 84 | 1002.2 |
| 20260505152818 | 53 | 38 | 1.0 | 12.0 | 0.00 | 0.04 | 0.01 | 85 | 1002.2 |
| 20260505152320 | 53 | 44 | 1.0 | 17.0 | 0.00 | 0.04 | 0.01 | 85 | 1002.0 |
| 20260505151817 | 53 | 53 | 2.0 | 17.0 | 0.00 | 0.04 | 0.01 | 85 | 1001.8 |
| 20260505151318 | 53 | 44 | 1.0 | 14.0 | 0.00 | 0.04 | 0.01 | 84 | 1001.8 |
| 20260505150816 | 53 | 57 | 1.0 | 11.0 | 0.00 | 0.04 | 0.01 | 84 | 1002.0 |
| 20260505150314 | 53 | 44 | 1.0 | 6.0 | 0.00 | 0.04 | 0.01 | 84 | 1002.2 |
| 20260505140309 | 55 | 57 | 1.0 | 13.0 | 0.00 | 0.04 | 0.01 | 85 | 1000.8 |
| 20260505130305 | 58 | 49 | 1.0 | 11.0 | 0.00 | 0.04 | 0.01 | 84 | 1000.2 |
| 20260505124804 | 59 | 45 | 2.0 | 10.0 | 0.00 | 0.04 | 0.01 | 84 | 999.9 |
| 20260505124303 | 59 | 58 | 1.0 | 10.0 | 0.00 | 0.04 | 0.01 | 84 | 999.9 |
| 20260505123757 | 59 | 48 | 1.0 | 8.0 | 0.00 | 0.04 | 0.01 | 84 | 999.9 |
| 20260505123518 | 60 | 34 | 1.0 | 13.0 | 0.00 | 0.04 | 0.01 | 84 | 999.9 |
| 20260505122744 | 60 | 61 | 1.0 | 13.0 | 0.00 | 0.04 | 0.01 | 83 | 999.8 |
| 20260505122246 | 60 | 55 | 1.0 | 11.0 | 0.00 | 0.04 | 0.01 | 83 | 999.5 |
| 20260505121745 | 60 | 59 | 1.0 | 11.0 | 0.00 | 0.04 | 0.01 | 83 | 999.4 |
| 20260505121245 | 61 | 58 | 1.0 | 11.0 | 0.00 | 0.04 | 0.01 | 83 | 999.4 |
| 20260505120745 | 62 | 42 | 0.0 | 11.0 | 0.00 | 0.04 | 0.01 | 85 | 999.3 |
| 20260505120241 | 62 | 34 | 0.0 | 0.0 | 0.00 | 0.04 | 0.01 | 86 | 999.1 |
| 20260505115740 | 62 | 34 | 0.0 | 1.0 | 0.00 | 0.04 | 0.01 | 85 | 999.2 |
| 20260505115235 | 62 | 58 | 0.0 | 1.0 | 0.00 | 0.04 | 0.01 | 86 | 999.0 |
| 20260505114735 | 62 | 55 | 0.0 | 1.0 | 0.00 | 0.04 | 0.01 | 86 | 998.8 |
| 20260505114456 | 62 | 49 | 0.0 | 1.0 | 0.01 | 0.04 | 0.01 | 86 | 998.9 |
| 20260505113733 | 62 | 49 | 0.0 | 1.0 | 0.01 | 0.04 | 0.01 | 86 | 998.8 |
| 20260505113233 | 62 | 50 | 0.0 | 1.0 | 0.01 | 0.04 | 0.01 | 86 | 998.7 |
| 20260505112736 | 62 | 44 | 0.0 | 2.0 | 0.01 | 0.04 | 0.01 | 87 | 998.8 |
| 20260505112458 | 62 | 62 | 1.0 | 6.0 | 0.01 | 0.04 | 0.01 | 87 | 998.6 |
| 20260505111732 | 62 | 44 | 1.0 | 6.0 | 0.01 | 0.04 | 0.01 | 87 | 998.7 |
| 20260505111232 | 61 | 31 | 0.0 | 4.0 | 0.01 | 0.04 | 0.01 | 87 | 998.7 |
| 20260505110731 | 61 | 44 | 0.0 | 0.0 | 0.01 | 0.04 | 0.01 | 87 | 998.6 |
| 20260505110232 | 62 | 58 | 0.0 | 0.0 | 0.01 | 0.04 | 0.01 | 86 | 998.5 |
| 20260505102204 | 64 | 44 | 0.0 | 5.0 | 0.00 | 0.03 | 0.00 | 80 | 998.1 |
| 20260505101705 | 65 | 134 | 0.0 | 4.0 | 0.00 | 0.03 | 0.00 | 79 | 997.9 |
| 20260505101205 | 65 | 144 | 0.0 | 4.0 | 0.00 | 0.03 | 0.00 | 79 | 997.2 |
| 20260505100705 | 65 | 147 | 0.0 | 8.0 | 0.00 | 0.03 | 0.00 | 79 | 997.0 |
| 20260505100205 | 65 | 137 | 1.0 | 8.0 | 0.00 | 0.03 | 0.00 | 79 | 997.0 |
| 20260505095704 | 65 | 142 | 1.0 | 8.0 | 0.00 | 0.03 | 0.00 | 80 | 997.0 |
| 20260505095204 | 64 | 176 | 1.0 | 9.0 | 0.00 | 0.03 | 0.00 | 81 | 997.0 |
| 20260505094704 | 64 | 156 | 1.0 | 9.0 | 0.00 | 0.03 | 0.00 | 81 | 997.0 |
| 20260505094204 | 64 | 129 | 0.0 | 7.0 | 0.00 | 0.03 | 0.00 | 81 | 997.3 |
| 20260505093704 | 64 | 161 | 0.0 | 8.0 | 0.00 | 0.03 | 0.00 | 81 | 997.4 |
| 20260505093204 | 64 | 142 | 1.0 | 8.0 | 0.00 | 0.03 | 0.00 | 81 | 997.4 |
| 20260505092923 | 64 | 133 | 0.0 | 5.0 | 0.00 | 0.03 | 0.00 | 80 | 997.3 |
| 20260505092911 | 64 | 141 | 0.0 | 5.0 | 0.00 | 0.03 | 0.00 | 80 | 997.4 |
| 20260505091704 | 64 | 140 | 0.0 | 4.0 | 0.00 | 0.03 | 0.00 | 80 | 997.4 |
| 20260505091204 | 64 | 165 | 0.0 | 4.0 | 0.00 | 0.03 | 0.00 | 79 | 997.5 |
| 20260505090704 | 64 | 124 | 0.0 | 4.0 | 0.00 | 0.03 | 0.00 | 78 | 997.5 |
| 20260505090201 | 64 | 92 | 0.0 | 4.0 | 0.00 | 0.03 | 0.00 | 78 | 997.5 |
| 20260505085916 | 64 | 141 | 0.0 | 1.0 | 0.00 | 0.03 | 0.00 | 77 | 997.4 |
| 20260505085149 | 64 | 142 | 0.0 | 4.0 | 0.00 | 0.03 | 0.00 | 77 | 997.4 |
| 20260505084642 | 64 | 142 | 0.0 | 4.0 | 0.00 | 0.03 | 0.00 | 76 | 997.4 |
| 20260505084143 | 64 | 125 | 0.0 | 1.0 | 0.00 | 0.03 | 0.00 | 76 | 997.4 |
| 20260505083859 | 64 | 126 | 0.0 | 2.0 | 0.00 | 0.03 | 0.00 | 77 | 997.4 |
| 20260505083406 | 64 | 142 | 0.0 | 2.0 | 0.00 | 0.03 | 0.00 | 77 | 997.3 |
| 20260505082642 | 64 | 123 | 0.0 | 0.0 | 0.00 | 0.03 | 0.00 | 78 | 997.3 |
| 20260505082402 | 64 | 123 | 0.0 | 3.0 | 0.00 | 0.03 | 0.00 | 78 | 997.2 |
| 20260505081641 | 63 | 123 | 0.0 | 4.0 | 0.00 | 0.03 | 0.00 | 78 | 997.1 |
| 20260505081138 | 63 | 126 | 0.0 | 4.0 | 0.00 | 0.03 | 0.00 | 78 | 997.1 |
| 20260505080637 | 63 | 111 | 0.0 | 3.0 | 0.00 | 0.03 | 0.00 | 78 | 997.1 |
| 20260505080135 | 63 | 150 | 0.0 | 0.0 | 0.00 | 0.03 | 0.00 | 78 | 997.2 |
| 20260505075633 | 63 | 150 | 0.0 | 0.0 | 0.00 | 0.03 | 0.00 | 78 | 997.0 |
| 20260505075354 | 63 | 150 | 0.0 | 1.0 | 0.00 | 0.03 | 0.00 | 77 | 997.1 |
| 20260505075115 | 63 | 152 | 0.0 | 3.0 | 0.00 | 0.03 | 0.00 | 78 | 997.2 |
| 20260505074354 | 63 | 153 | 1.0 | 4.0 | 0.00 | 0.03 | 0.00 | 78 | 997.2 |
| 20260505073633 | 63 | 131 | 0.0 | 4.0 | 0.00 | 0.03 | 0.00 | 78 | 997.2 |
| 20260505073132 | 63 | 132 | 0.0 | 8.0 | 0.00 | 0.03 | 0.00 | 78 | 997.2 |
| 20260505072855 | 63 | 128 | 0.0 | 8.0 | 0.00 | 0.03 | 0.00 | 78 | 997.4 |
| 20260505072132 | 63 | 128 | 0.0 | 8.0 | 0.00 | 0.03 | 0.00 | 78 | 997.6 |
| 20260505071646 | 63 | 119 | 1.0 | 8.0 | 0.00 | 0.03 | 0.00 | 78 | 997.9 |
| 20260505071403 | 63 | 142 | 1.0 | 5.0 | 0.00 | 0.03 | 0.00 | 78 | 997.9 |
| 20260505070632 | 63 | 107 | 1.0 | 4.0 | 0.00 | 0.03 | 0.00 | 79 | 997.8 |
| 20260505070118 | 63 | 106 | 0.0 | 7.0 | 0.00 | 0.03 | 0.00 | 78 | 998.0 |
| 20260505065613 | 63 | 94 | 0.0 | 3.0 | 0.00 | 0.03 | 0.00 | 78 | 998.1 |
| 20260505065113 | 64 | 121 | 0.0 | 4.0 | 0.00 | 0.03 | 0.00 | 78 | 998.3 |
| 20260505064610 | 64 | 126 | 0.0 | 5.0 | 0.00 | 0.03 | 0.00 | 77 | 998.3 |
| 20260505064110 | 64 | 139 | 0.0 | 5.0 | 0.00 | 0.03 | 0.00 | 76 | 998.2 |
| 20260505063616 | 65 | 164 | 0.0 | 3.0 | 0.00 | 0.03 | 0.00 | 75 | 998.7 |
| 20260505063116 | 65 | 138 | 0.0 | 3.0 | 0.00 | 0.03 | 0.00 | 74 | 998.4 |
| 20260505062610 | 66 | 153 | 0.0 | 2.0 | 0.00 | 0.03 | 0.00 | 73 | 998.5 |
| 20260505062111 | 66 | 154 | 1.0 | 7.0 | 0.00 | 0.03 | 0.00 | 71 | 998.6 |
| 20260505061608 | 67 | 157 | 1.0 | 7.0 | 0.00 | 0.03 | 0.00 | 69 | 999.0 |
| 20260505061109 | 66 | 126 | 1.0 | 7.0 | 0.00 | 0.03 | 0.00 | 68 | 998.7 |
| 20260505060608 | 65 | 71 | 0.0 | 6.0 | 0.00 | 0.03 | 0.00 | 72 | 998.7 |
| 20260505060109 | 65 | 67 | 0.0 | 4.0 | 0.00 | 0.03 | 0.00 | 72 | 999.0 |
| 20260505055828 | 66 | 67 | 1.0 | 16.0 | 0.00 | 0.03 | 0.00 | 71 | 999.2 |
| 20260505055106 | 66 | 61 | 1.0 | 16.0 | 0.00 | 0.03 | 0.00 | 70 | 998.9 |
| 20260505054607 | 65 | 46 | 0.0 | 0.0 | 0.00 | 0.03 | 0.00 | 72 | 999.5 |
| 20260505054107 | 65 | 46 | 0.0 | 4.0 | 0.00 | 0.03 | 0.00 | 72 | 999.8 |
| 20260505053606 | 65 | 46 | 0.0 | 4.0 | 0.00 | 0.03 | 0.00 | 71 | 1000.0 |
| 20260505053107 | 65 | 53 | 0.0 | 1.0 | 0.00 | 0.03 | 0.00 | 72 | 999.9 |
| 20260505053048 | 65 | 39 | 0.0 | 4.0 | 0.00 | 0.03 | 0.00 | 72 | 1000.0 |
| 20260505052105 | 66 | 21 | 0.0 | 4.0 | 0.00 | 0.03 | 0.00 | 75 | 1000.1 |
| 20260505051604 | 66 | 67 | 0.0 | 4.0 | 0.00 | 0.03 | 0.00 | 74 | 1000.1 |
| 20260505051102 | 66 | 316 | 1.0 | 5.0 | 0.00 | 0.03 | 0.00 | 76 | 1000.1 |
| 20260505050603 | 66 | 317 | 1.0 | 7.0 | 0.00 | 0.03 | 0.00 | 80 | 999.9 |
| 20260505041558 | 67 | 186 | 0.0 | 1.0 | 0.03 | 0.03 | 0.03 | 77 | 998.5 |
| 20260505041058 | 68 | 186 | 0.0 | 4.0 | 0.03 | 0.03 | 0.03 | 76 | 997.9 |
| 20260505040559 | 68 | 188 | 0.0 | 4.0 | 0.03 | 0.03 | 0.03 | 74 | 997.9 |
| 20260505040058 | 69 | 144 | 0.0 | 1.0 | 0.03 | 0.03 | 0.03 | 73 | 997.6 |
| 20260505035823 | 69 | 161 | 1.0 | 9.0 | 0.02 | 0.02 | 0.02 | 71 | 997.8 |
| 20260505035058 | 70 | 161 | 1.0 | 9.0 | 0.00 | 0.00 | 0.00 | 68 | 998.0 |
| 20260505034558 | 70 | 143 | 1.0 | 10.0 | 0.00 | 0.00 | 0.00 | 67 | 997.7 |
| 20260505034059 | 71 | 176 | 1.0 | 10.0 | 0.00 | 0.00 | 0.00 | 65 | 997.6 |
| 20260505033601 | 71 | 144 | 1.0 | 9.0 | 0.00 | 0.00 | 0.00 | 65 | 997.7 |
| 20260505033052 | 71 | 142 | 1.0 | 6.0 | 0.00 | 0.00 | 0.00 | 65 | 997.8 |
| 20260505032558 | 71 | 157 | 1.0 | 5.0 | 0.00 | 0.00 | 0.00 | 65 | 997.9 |
| 20260505032053 | 71 | 147 | 0.0 | 5.0 | 0.00 | 0.00 | 0.00 | 64 | 998.1 |
| 20260505031548 | 71 | 155 | 0.0 | 4.0 | 0.00 | 0.00 | 0.00 | 64 | 998.2 |
| 20260505031046 | 71 | 159 | 0.0 | 8.0 | 0.00 | 0.00 | 0.00 | 64 | 998.0 |
| 20260505030546 | 71 | 147 | 1.0 | 9.0 | 0.00 | 0.00 | 0.00 | 64 | 998.0 |
| 20260505030046 | 71 | 168 | 1.0 | 9.0 | 0.00 | 0.00 | 0.00 | 64 | 998.3 |
| 20260505025542 | 71 | 165 | 0.0 | 9.0 | 0.00 | 0.00 | 0.00 | 65 | 998.4 |
| 20260505025045 | 71 | 140 | 0.0 | 3.0 | 0.00 | 0.00 | 0.00 | 65 | 998.4 |
| 20260505024542 | 71 | 165 | 0.0 | 3.0 | 0.00 | 0.00 | 0.00 | 65 | 998.5 |
| 20260505024309 | 71 | 160 | 0.0 | 4.0 | 0.00 | 0.00 | 0.00 | 65 | 998.5 |
| 20260505023539 | 71 | 171 | 1.0 | 6.0 | 0.00 | 0.00 | 0.00 | 65 | 998.3 |
| 20260505023037 | 71 | 178 | 1.0 | 6.0 | 0.00 | 0.00 | 0.00 | 66 | 998.0 |
| 20260505022802 | 72 | 173 | 0.0 | 6.0 | 0.00 | 0.00 | 0.00 | 65 | 998.1 |
| 20260505022037 | 72 | 189 | 1.0 | 5.0 | 0.00 | 0.00 | 0.00 | 66 | 998.1 |
| 20260505021536 | 72 | 163 | 1.0 | 5.0 | 0.00 | 0.00 | 0.00 | 65 | 998.0 |
| 20260505021044 | 73 | 178 | 0.0 | 5.0 | 0.00 | 0.00 | 0.00 | 64 | 997.9 |
| 20260505021036 | 72 | 177 | 0.0 | 5.0 | 0.00 | 0.00 | 0.00 | 65 | 997.9 |
| 20260505020034 | 73 | 171 | 0.0 | 7.0 | 0.00 | 0.00 | 0.00 | 64 | 998.1 |
| 20260505015532 | 73 | 172 | 0.0 | 7.0 | 0.00 | 0.00 | 0.00 | 64 | 998.0 |
| 20260505015251 | 73 | 180 | 0.0 | 6.0 | 0.00 | 0.00 | 0.00 | 64 | 998.0 |
| 20260505014526 | 73 | 177 | 0.0 | 1.0 | 0.00 | 0.00 | 0.00 | 64 | 997.9 |
| 20260505014019 | 73 | 176 | 0.0 | 1.0 | 0.00 | 0.00 | 0.00 | 65 | 997.8 |
| 20260505013520 | 73 | 155 | 0.0 | 1.0 | 0.00 | 0.00 | 0.00 | 65 | 997.8 |
| 20260505013019 | 73 | 170 | 0.0 | 6.0 | 0.00 | 0.00 | 0.00 | 64 | 997.7 |
| 20260505012518 | 74 | 170 | 1.0 | 9.0 | 0.00 | 0.00 | 0.00 | 64 | 997.7 |
| 20260505012017 | 74 | 161 | 0.0 | 9.0 | 0.00 | 0.00 | 0.00 | 63 | 997.6 |
| 20260505011517 | 74 | 161 | 0.0 | 1.0 | 0.00 | 0.00 | 0.00 | 63 | 997.6 |
| 20260505011014 | 74 | 161 | 0.0 | 1.0 | 0.00 | 0.00 | 0.00 | 62 | 997.5 |
| 20260505010737 | 74 | 165 | 0.0 | 0.0 | 0.00 | 0.00 | 0.00 | 62 | 997.6 |
| 20260505010012 | 75 | 164 | 0.0 | 0.0 | 0.00 | 0.00 | 0.00 | 61 | 997.5 |